This is the latest recevied weather packets stored in our database for station/object OM7FX-15. If no packets are shown the sender has not sent any weather packets the latest 10 day(s).
| Time | Temp. | Humidity | Pressure | Rain* | Wind** | Luminosity | Snow |
|---|---|---|---|---|---|---|---|
| 1777661277 | 24.44° C | 39% | 977.4 hPa | - | - | - | - |
| 1777660377 | 24.44° C | 39% | 977.4 hPa | - | - | - | - |
| 1777659477 | 25° C | 38% | 977.2 hPa | - | - | - | - |
| 1777658577 | 25° C | 38% | 977.1 hPa | - | - | - | - |
| 1777657677 | 25.56° C | 38% | 977.1 hPa | - | - | - | - |
| 1777656776 | 26.11° C | 36% | 977 hPa | - | - | - | - |
| 1777655876 | 26.11° C | 35% | 976.9 hPa | - | - | - | - |
| 1777654976 | 26.67° C | 34% | 976.8 hPa | - | - | - | - |
| 1777654076 | 29.44° C | 31% | 976.9 hPa | - | - | - | - |
| 1777653176 | 28.89° C | 31% | 977 hPa | - | - | - | - |
| 1777652276 | 29.44° C | 30% | 977.1 hPa | - | - | - | - |
| 1777651376 | 26.67° C | 33% | 977.1 hPa | - | - | - | - |
| 1777650476 | 28.89° C | 31% | 977.1 hPa | - | - | - | - |
| 1777649576 | 26.67° C | 36% | 977.2 hPa | - | - | - | - |
| 1777648676 | 28.89° C | 31% | 976.9 hPa | - | - | - | - |
| 1777647776 | 26.11° C | 37% | 977.1 hPa | - | - | - | - |
| 1777646876 | 28.89° C | 32% | 977.1 hPa | - | - | - | - |
| 1777645976 | 29.44° C | 30% | 977.1 hPa | - | - | - | - |
| 1777645076 | 28.33° C | 33% | 977.2 hPa | - | - | - | - |
| 1777644175 | 28.89° C | 30% | 977.2 hPa | - | - | - | - |
| 1777643275 | 26.67° C | 34% | 977.3 hPa | - | - | - | - |
| 1777642375 | 28.89° C | 30% | 977.3 hPa | - | - | - | - |
| 1777641475 | 26.67° C | 34% | 977.4 hPa | - | - | - | - |
| 1777640575 | 28.89° C | 30% | 977.5 hPa | - | - | - | - |
| 1777639675 | 27.22° C | 33% | 977.6 hPa | - | - | - | - |
* Rain since midnight (hover to see other rain measurements)
** Current wind speed in m/s (hover to see current wind gust speed)